Tracking 30258 objects as of 19-Feb-2025
HD Live streaming from Space Station
objects crossing your sky now

DELTA 1 R/B

Track DELTA 1 R/B now!
10-day predictions


NORAD ID: 7616
Int'l Code: 1975-004B
Perigee: 744.9 km
Apogee: 1,016.2 km
Inclination: 97.8 °
Period: 102.4 minutes
Semi major axis: 7251 km
RCS: 5.2306 m2 (large)
Launch date: January 22, 1975
Source: United States (US)
Launch site: AIR FORCE WESTERN TEST RANGE (AFWTR)

Note: This is a ROCKET BODY
Your satellite tracking list
Your tracking list is empty




NASA's NSSDC Master Catalog

Two Line Element Set (TLE):
1  7616U 75004B   25050.19258351  .00000533  00000-0  29538-3 0  9993
2  7616  97.7606 168.2245 0187089 106.5427 255.6386 14.05900213552500
Source of the keplerian elements: AFSPC